RADUGA 22

Satellite information

Favourite Embed

Satellite Type and Status

PAYLOADIN ORBIT

Key statistics

Satellite RADUGA 22 at a glance.

Uptime

13571

Days in orbit

Revolutions

≈ 1.0

Per day

Orbit

OTHER

Other

Inclination

11.8

Latest

Satellite identification and parameters

Extended collection of information and parameters for RADUGA 22.

Object identification

Identified? True

Debris? False

Object name: RADUGA 22

International designator: 1988-095A

Object number (NORAD): 19596

Object ID (CCSDS): 19596

Country: COMMONWEALTH OF INDEPENDENT STATES (CIS)

Current information (Y/N): Y

RCS size: LARGE

Orbital parameters

Period: 1436.979 minutes

Inclination: 11.7805 deg

SMA: 42182.002 km

Apoapsis: 35828.268 km

Periapsis: 35779.466 km

RAAN: 331.3554 deg

Eccentricy: 0.00057846

Argument of periapsis: 212.4227 deg

Mean anomaly: 351.8102 deg

Mean motion: 1.00210212 rev/day

Mean motion (dot): -0.00000367 rev/day2

B* drag term: 0.0 1/REarth

Two-line elements (TLE)

Creation date: Dec. 14, 2025, 11:30 a.m.

Reference frame: TEME

Reference center: EARTH

Epoch: Dec. 13, 2025, 10:05 p.m. UTC

TLE line 0: 0 RADUGA 22

TLE line 1: 1 19596U 88095A 25347.92038944 -.00000367 00000-0 00000-0 0 9997

TLE line 2: 2 19596 11.7805 331.3554 0005785 212.4227 351.8102 1.00210212119799

Live tracking on map

Real-time ground track for satellite RADUGA 22.

In-orbit conjunctions

A list of the most updated potential collisions computed for object RADUGA 22.

Target Orbit TCA Probability of collision Miss distance Type
RADUGA 15 OTHER 2025-11-18 00:40:47 TBA 4971.0 (m) PAYLOAD
SIRIO OTHER 2024-11-06 16:57:25 TBA 4954.0 (m) PAYLOAD
USA 149 DEB OTHER 2024-08-21 16:17:04 TBA 4992.0 (m) DEBRIS

Associated space launch

Geostationary communications satellite for military and governmental puposes

RADUGA 22 was lifted into orbit during the mission ‘Proton | Raduga 22’, on board a Proton space rocket.

The launch took place on Oct. 20, 1988, 3:43 p.m. from 200/39 (200L).

For more information about the launch, click the button.

Launch to space Proton | Raduga 22
Proton | Raduga 22

Agency: N/A

Status: Launch Successful

Launch date: Oct. 20, 1988, 3:43 p.m. UTC

Rocket: Proton

Launch pad: 200/39 (200L)

Location: Baikonur Cosmodrome, Republic of Kazakhstan

...

Latest news about this satellite

There are no fresh news available about this satellite. Check back as we update our databases every day.


Newsletter sign-up

Weekly statistics, charts and insights to help you stay on top of the space industry.